Overview Statistics Trail Chart Weather Telemetry Raw packets
 

This is the latest recevied weather packets stored in our database for station/object K5GHS-1. If no packets are shown the sender has not sent any weather packets the latest 10 day(s).

<< 20 21 22 23 24 25 26 >>
Time Temp. Humidity Pressure Rain* Wind** Luminosity Snow
1788569796 33.33° C 54% 1010.1 hPa 0 mm - 0 W/m² -
1788569492 33.33° C 53% 1010.3 hPa 0 mm - 0 W/m² -
1788569192 33.89° C 51% 1010.2 hPa 0 mm - 0 W/m² -
1788568887 33.89° C 47% 1010.3 hPa 0 mm - 1 W/m² -
1788568582 33.89° C 47% 1009.9 hPa 0 mm - 3 W/m² -
1788568278 34.44° C 46% 1010 hPa 0 mm - 6 W/m² -
1788567973 34.44° C 47% 1010.3 hPa 0 mm - 8 W/m² -
1788567668 34.44° C 47% 1010 hPa 0 mm - 10 W/m² -
1788567363 34.44° C 47% 1009.7 hPa 0 mm - 12 W/m² -
1788567057 34.44° C 47% 1009.9 hPa 0 mm - 15 W/m² -
1788566752 34.44° C 47% 1010 hPa 0 mm - 17 W/m² -
1788566448 35° C 46% 1009.9 hPa 0 mm - 19 W/m² -
1788566143 35° C 47% 1009.8 hPa 0 mm - 21 W/m² -
1788565843 35° C 47% 1010 hPa 0 mm - 24 W/m² -
1788565543 35° C 48% 1009.7 hPa 0 mm - 25 W/m² -
1788565239 35° C 47% 1009.8 hPa 0 mm - 27 W/m² -
1788564933 35° C 47% 1009.9 hPa 0 mm - 29 W/m² -
1788564630 35° C 48% 1010 hPa 0 mm - 31 W/m² -
1788564326 35° C 48% 1009.9 hPa 0 mm - 29 W/m² -
1788564023 35° C 49% 1009.9 hPa 0 mm - 31 W/m² -
1788563718 35° C 48% 1009.9 hPa 0 mm - 30 W/m² -
1788563413 35° C 48% 1009.9 hPa 0 mm - 38 W/m² -
1788563112 35° C 49% 1009.8 hPa 0 mm - 42 W/m² -
1788562808 35° C 49% 1009.9 hPa 0 mm - 38 W/m² -
1788562505 35.56° C 47% 1009.7 hPa 0 mm - 36 W/m² -

* Rain latest hour (hover to see other rain measurements)
** Current wind speed in m/s (hover to see current wind gust speed)